This is the latest recevied weather packets stored in our database for station/object K1AWR. If no packets are shown the sender has not sent any weather packets the latest 10 day(s).
| Time | Temp. | Humidity | Pressure | Rain* | Wind** | Luminosity | Snow |
|---|---|---|---|---|---|---|---|
| 1777558276 | 10° C | 94% | 1007.8 hPa | 0 mm | - | 31 W/m² | - |
| 1777557974 | 10° C | 94% | 1007.9 hPa | 0 mm | - | 44 W/m² | - |
| 1777557670 | 10° C | 94% | 1007.8 hPa | 0 mm | - | 37 W/m² | - |
| 1777557366 | 10° C | 94% | 1007.7 hPa | 0 mm | - | 36 W/m² | - |
| 1777557063 | 10° C | 94% | 1007.7 hPa | 0 mm | - | 34 W/m² | - |
| 1777556758 | 10° C | 94% | 1007.6 hPa | 0 mm | - | 51 W/m² | - |
| 1777556455 | 10° C | 94% | 1007.8 hPa | 0 mm | - | 43 W/m² | - |
| 1777556155 | 10° C | 94% | 1007.8 hPa | 0 mm | - | 66 W/m² | - |
| 1777555851 | 9.44° C | 94% | 1007.8 hPa | 0 mm | - | 38 W/m² | - |
| 1777555546 | 9.44° C | 94% | 1008 hPa | 0 mm | - | 43 W/m² | - |
| 1777555243 | 9.44° C | 94% | 1007.9 hPa | 1.27 mm | - | 55 W/m² | - |
| 1777554940 | 9.44° C | 94% | 1007.8 hPa | 0 mm | - | 49 W/m² | - |
| 1777554637 | 10° C | 94% | 1008.1 hPa | 1.78 mm | - | 24 W/m² | - |
| 1777554334 | 9.44° C | 94% | 1008.1 hPa | 1.78 mm | - | 74 W/m² | - |
| 1777554031 | 9.44° C | 94% | 1008 hPa | 1.78 mm | - | 65 W/m² | - |
| 1777553727 | 9.44° C | 94% | 1008.1 hPa | 3.05 mm | - | 72 W/m² | - |
| 1777553424 | 9.44° C | 95% | 1008.1 hPa | 1.27 mm | - | 37 W/m² | - |
| 1777553120 | 9.44° C | 95% | 1008.2 hPa | 0 mm | - | 35 W/m² | - |
| 1777552820 | 9.44° C | 95% | 1008.1 hPa | 0 mm | - | 28 W/m² | - |
| 1777552516 | 9.44° C | 95% | 1008.1 hPa | 0 mm | - | 40 W/m² | - |
| 1777552212 | 9.44° C | 95% | 1008.2 hPa | 0 mm | - | 33 W/m² | - |
| 1777551909 | 9.44° C | 95% | 1008.2 hPa | 0 mm | - | 39 W/m² | - |
| 1777551607 | 9.44° C | 95% | 1008.3 hPa | 0 mm | - | 43 W/m² | - |
| 1777551304 | 9.44° C | 95% | 1008.2 hPa | 1.78 mm | - | 44 W/m² | - |
| 1777551001 | 9.44° C | 95% | 1008.3 hPa | 1.78 mm | - | 41 W/m² | - |
* Rain latest hour (hover to see other rain measurements)
** Current wind speed in m/s (hover to see current wind gust speed)